Simultaneous Nadir Overpasses (SNOs) Predictions

Prediction of SNOs between GOES-17 and TERRA Satellite Orbit:

Table of predicted SNOs for the next 14.0 days since TLE Epoch: 12/31/2023
Index Date Time (GOES-17) GOES-17 Lat,Lon TERRA Lat,Lon Distance(km) Time Diff (sec)
1 01/01/2024 04:41:05 -0.02,-104.66 0.60,-101.57 351.26 80
2 01/01/2024 17:01:09 0.03,-104.68 0.39,-106.45 201.56 80
3 01/03/2024 16:46:58 0.03,-104.68 -0.43,-102.38 260.53 80
4 01/04/2024 05:07:11 -0.03,-104.67 -0.58,-107.30 298.73 80
5 01/06/2024 04:47:40 -0.02,-104.67 0.26,-103.23 163.05 80
6 01/06/2024 17:07:43 0.02,-104.67 0.71,-108.11 390.39 80
7 01/08/2024 16:53:33 -0.01,-104.67 -0.15,-104.05 70.65 80
8 01/09/2024 05:13:44 0.01,-104.66 -0.91,-108.95 488.28 80
9 01/11/2024 04:56:53 0.01,-104.65 -0.02,-104.89 27.15 80
10 01/13/2024 04:37:21 -0.00,-104.64 0.82,-100.82 434.38 80
11 01/13/2024 16:57:23 0.01,-104.64 0.25,-105.68 119.27 80
